Погода в Русском Броде

Россия / Орловская область     52°36′24″N   37°21′29″E
темп.,
°C
ветер,
м/с
пор.,
м/с
влажн.,
%
обл.,
%
осадки,
мм/ч
давл.,
гПа
погр.,
м
20 июня, вс
вс2000:00+16вюв33870 0.0 102442
03:00+14вюв33880 0.0 102434
06:00+15в35890 0.0 1023143
09:00+20вюв46730 0.0 1023458
12:00+23вюв456140 0.0 1023919
15:00+24вюв455979 0.0 10221016
18:00+24вюв477159 0.0 1021652
21:00+19в3484100 0.0 102151
21 июня, пн
пн2100:00+17вюв3590100 0.0 102183
03:00+16в379188 0.0 1021112
06:00+17в4988100 0.0 1020204
09:00+22в51074100 0.0 1020415
12:00+25вюв676585 0.0 1020664
15:00+26вюв5770100 0.0 1019719
18:00+25вюв4878100 0.0 1019355
21:00+21в488843 0.0 1019143
22 июня, вт
вт2200:00+19вюв48922 0.0 1020123
03:00+18вюв48935 0.0 1020142
06:00+19в411893 0.0 1020233
09:00+24вюв610725 0.0 1020433
12:00+27вюв686392 0.0 1020764
15:00+28вюв576399 0.0 10201014
18:00+27вюв48717 0.0 1019529
21:00+23вюв49875 0.0 1020171
23 июня, ср
ср2300:00+21вюв47875 0.0 1020119
03:00+19в378653 0.0 102098
06:00+20всв49877 0.0 1020191
09:00+25всв587232 0.0 1020364
12:00+28в576258 0.0 1020821
15:00+29в565991 0.0 1019886
18:00+28в367039 0.0 1019505
21:00+23в338497 0.0 102023
24 июня, чт
чт2400:00+21юв1187100 0.0 102011
03:00+21св228898 0.0 102011
06:00+22всв238594 0.0 102171
09:00+26в237115 0.0 1020342
12:00+29в225889 0.0 1020858
15:00+30всв115264 0.0 10201346
18:00+30св126355 0.0 10191215
21:00+24св22746 0.0 102015